Flag for Switzerland Weather past 2 weeks in Arth, Schwyz, Switzerland

Now
53 °F

Cool.


Feels Like: 53 °F
Forecast: 33 / 53 °F
Wind: 2 mph from Southeast

Location: Altdorf

Current Time: Sep 1, 2014 at 11:23:16 PM

Latest Report: Sep 1, 2014 at 10:00 PM


Visibility: N/A

Pressure: 30.18 "Hg

Humidity: 93%

Dew point: 51 °F

Location of ArthLocation

Historic Weather in Arth — Graph

°F

Arth temperature yesterday

Maximum temperature yesterday: 68 °F (at 1:00 PM)
Minimum temperature yesterday: 53 °F (at 11:00 PM)
Average temperature yesterday: 60 °F

Past Weeks' High & Low Weather Summary

 TemperatureHumidityPressure
High74 °F (Aug 28, 4:00 PM)99% (Aug 27, 12:00 AM)30.22 "Hg (Aug 27, 12:00 AM)
Low46 °F (Aug 25, 3:00 AM)47% (Aug 24, 3:00 PM)29.79 "Hg (Aug 26, 7:00 AM)
Average60 °F81%30.01 "Hg
* Reported Aug 17 10:00 PM — Sep 1 10:00 PM, Arth, Weather by CustomWeather, © 2014

Note: Actual official high and low records may vary slightly from our data, if they occured in-between our weather recording intervals... More about our weather records

Advertising

Arth weather history for previous 24 hours

 ConditionsComfort  
Time TempWeatherWind HumidityBarometerVisibility
10:00 PM
Sep 1
53 °FCool.2 mph93%30.18 "HgN/A
9:00 PM53 °FCool.2 mph95%30.18 "HgN/A
8:00 PM57 °FOvercast.1 mph88%30.15 "Hg9 mi
7:00 PM58 °FCool.1 mph84%30.14 "HgN/A
6:00 PM59 °FCool.1 mph75%30.14 "HgN/A
5:00 PM58 °FOvercast.2 mph79%30.15 "Hg9 mi
4:00 PM57 °FCool.6 mph81%30.15 "HgN/A
3:00 PM58 °FCool.1 mph84%30.14 "HgN/A
2:00 PM58 °FOvercast.5 mph80%30.13 "Hg9 mi
1:00 PM58 °FCool.3 mph78%30.13 "HgN/A
12:00 PM57 °FCool.2 mph75%30.13 "HgN/A
11:00 AM56 °FLight rain. Overcast.8 mph86%30.13 "Hg5 mi
10:00 AM53 °FCool.3 mph93%30.13 "HgN/A
9:00 AM52 °FCool.5 mph92%30.11 "HgN/A
8:00 AM51 °FLight rain. Overcast.1 mph95%30.11 "Hg3 mi
7:00 AM50 °FCool.1 mph94%30.09 "HgN/A
6:00 AM49 °FCool.1 mph97%30.09 "HgN/A
5:00 AM49 °FHeavy rain. Overcast.2 mph92%30.09 "Hg5 mi
4:00 AM51 °FCool.1 mph94%30.08 "HgN/A
3:00 AM52 °FCool.2 mph94%30.07 "HgN/A
2:00 AM52 °FHeavy rain. Overcast.2 mph96%30.06 "Hg6 mi
1:00 AM53 °FCool.2 mph97%30.06 "HgN/A
12:00 AM53 °FCool.1 mph97%30.08 "HgN/A
11:00 PM
Aug 31
53 °FHeavy rain. Overcast.1 mph96%30.09 "Hg6 mi
Weather by CustomWeather, © 2014

See weather overviewHow to use our weather pages